DW8923 Weather Reports


time (UTC)temp
F
wind
direction
speed
knots
gust
knots
rain 1hr
in
rain 24hr
in
rain mn
in
humidity
%
barometer
mb
20260902044510 83 60 0.0 2.6 0.00 0.00 0.00 66 1013.1
20260902043014 83 93 0.0 1.7 0.00 0.00 0.00 66 1013.0
20260902041509 84 117 0.0 0.0 0.00 0.00 0.00 64 1012.8
20260902040009 85 117 0.0 0.9 0.00 0.00 0.00 62 1012.8
20260902034508 85 117 0.0 0.0 0.00 0.00 0.00 61 1012.7
20260902033011 85 117 0.0 0.9 0.00 0.00 0.00 61 1012.5
20260902031507 86 117 0.9 2.6 0.00 0.00 0.00 59 1012.4
20260902030006 86 117 0.0 0.9 0.00 0.00 0.00 58 1012.2
20260902024505 87 117 0.0 1.7 0.00 0.00 0.00 57 1011.7
20260902023004 87 96 0.0 2.6 0.00 0.00 0.00 56 1011.4
20260902021514 88 120 0.0 2.6 0.00 0.00 0.00 54 1011.2
20260902020003 89 108 0.0 1.7 0.00 0.00 0.00 52 1011.1
20260902014505 90 108 0.0 1.7 0.00 0.00 0.00 51 1010.9
20260902013002 90 123 0.0 1.7 0.00 0.00 0.00 50 1010.7
20260902011502 91 108 0.9 5.2 0.00 0.00 0.00 48 1010.6
20260902010001 92 73 1.7 6.1 0.00 0.00 0.00 47 1010.5
20260902004600 93 82 1.7 7.0 0.00 0.00 0.00 46 1010.6
20260902003100 94 227 0.0 6.1 0.00 0.00 0.00 44 1010.7
20260902001559 94 98 1.7 7.0 0.00 0.00 0.00 43 1010.7
20260902000059 95 107 1.7 7.0 0.00 0.00 0.00 43 1010.7
20260901234607 95 63 2.6 7.0 0.00 0.00 0.00 43 1010.6
20260901233103 96 39 1.7 7.0 0.00 0.00 0.00 43 1010.6
20260901231559 97 49 3.5 9.6 0.00 0.00 0.00 42 1010.6
20260901230057 97 13 3.5 7.0 0.00 0.00 0.00 41 1010.6
20260901224557 97 113 3.5 7.8 0.00 0.00 0.00 40 1010.7
20260901223054 96 69 3.5 8.7 0.00 0.00 0.00 42 1010.7
20260901221617 97 169 1.7 6.1 0.00 0.00 0.00 41 1010.7
20260901220056 97 63 1.7 7.8 0.00 0.00 0.00 42 1010.7
20260901214551 97 346 1.7 7.8 0.00 0.00 0.00 42 1010.8
20260901213107 99 355 3.5 7.8 0.00 0.00 0.00 39 1010.8
20260901211552 98 145 1.7 7.0 0.00 0.00 0.00 39 1011.1
20260901210046 98 78 1.7 7.8 0.00 0.00 0.00 40 1011.2
20260901204544 99 163 1.7 8.7 0.00 0.00 0.00 39 1011.4
20260901203053 98 103 0.9 7.0 0.00 0.00 0.00 42 1011.5
20260901201539 98 331 2.6 10.4 0.00 0.00 0.00 41 1011.8
20260901200046 98 16 1.7 6.1 0.00 0.00 0.00 43 1012.0
20260901194534 98 5 2.6 7.8 0.00 0.00 0.00 42 1012.2
20260901193040 98 328 0.9 6.1 0.00 0.00 0.00 42 1012.4
20260901191530 99 81 0.9 8.7 0.00 0.00 0.00 41 1012.6
20260901190025 98 223 2.6 6.1 0.00 0.00 0.00 43 1012.8
20260901184531 96 175 3.5 6.1 0.00 0.00 0.00 44 1013.1
20260901183020 95 111 0.0 6.1 0.00 0.00 0.00 46 1013.3
20260901181520 96 94 3.5 7.8 0.00 0.00 0.00 45 1013.6
20260901180016 96 138 0.9 7.8 0.00 0.00 0.00 48 1013.9
20260901174514 95 329 1.7 4.3 0.00 0.00 0.00 48 1014.0
20260901173012 95 140 1.7 7.0 0.00 0.00 0.00 48 1014.3
20260901171513 95 132 2.6 8.7 0.00 0.00 0.00 49 1014.5
20260901170006 94 138 0.9 4.3 0.00 0.00 0.00 53 1014.6
20260901164506 93 140 0.9 4.3 0.00 0.00 0.00 53 1014.6
20260901163003 94 26 1.7 5.2 0.00 0.00 0.00 51 1014.8
20260901161600 93 93 1.7 4.3 0.00 0.00 0.00 51 1015.0
20260901154554 91 192 0.0 3.5 0.00 0.00 0.00 58 1015.0
20260901153103 90 119 0.9 2.6 0.00 0.00 0.00 59 1014.9
20260901151546 89 148 0.9 2.6 0.00 0.00 0.00 61 1014.9
20260901150042 88 102 0.9 3.5 0.00 0.00 0.00 64 1015.1
20260901144537 86 171 0.9 4.3 0.00 0.00 0.00 68 1015.1
20260901143037 85 138 0.0 2.6 0.00 0.00 0.00 72 1015.1
20260901141539 83 158 0.9 2.6 0.00 0.00 0.00 76 1015.2
20260901140031 82 236 0.0 1.7 0.00 0.00 0.00 80 1015.4
20260901134530 79 65 0.0 0.9 0.00 0.00 0.00 85 1015.3
20260901133029 77 231 0.0 0.0 0.00 0.00 0.00 88 1015.4
20260901131527 75 231 0.0 0.0 0.00 0.00 0.00 90 1015.2
20260901130025 74 231 0.0 0.0 0.00 0.00 0.00 89 1014.8
20260901124523 74 231 0.0 0.0 0.00 0.00 0.00 87 1014.7
20260901123025 74 231 0.0 0.0 0.00 0.00 0.00 86 1014.6
20260901121523 74 231 0.0 0.0 0.00 0.00 0.00 86 1014.4
20260901120035 75 231 0.0 0.0 0.00 0.00 0.00 85 1014.3
20260901114517 76 231 0.0 0.0 0.00 0.00 0.00 85 1014.4
20260901113011 76 231 0.0 0.0 0.00 0.00 0.00 83 1014.2
20260901111509 76 231 0.0 0.0 0.00 0.00 0.00 83 1014.3
20260901110010 77 231 0.0 0.0 0.00 0.00 0.00 83 1014.2
20260901104505 77 231 0.0 0.0 0.00 0.00 0.00 83 1014.1
20260901103006 78 231 0.0 0.0 0.00 0.00 0.00 82 1014.1
20260901101503 78 182 0.0 2.6 0.00 0.00 0.00 82 1014.0
20260901100002 78 195 0.0 1.7 0.00 0.00 0.00 81 1013.9
20260901094559 78 205 0.0 2.6 0.00 0.00 0.00 80 1013.9
20260901093101 79 203 0.0 0.0 0.00 0.00 0.00 79 1014.1
20260901091605 79 190 0.0 0.0 0.00 0.00 0.00 78 1014.2
20260901090056 79 153 0.0 0.9 0.00 0.00 0.00 77 1014.0
20260901084558 79 160 0.0 3.5 0.00 0.00 0.00 77 1013.9
20260901083052 80 119 0.0 2.6 0.00 0.00 0.00 75 1013.7
20260901081549 80 169 0.0 3.5 0.00 0.00 0.00 74 1013.8
20260901080049 80 154 0.9 2.6 0.00 0.00 0.00 73 1013.9
20260901074547 81 153 0.0 4.3 0.00 0.00 0.00 73 1014.0
20260901073045 81 123 0.9 2.6 0.00 0.00 0.00 73 1014.0
20260901071556 81 115 0.9 3.5 0.00 0.00 0.00 72 1014.1
20260901070041 82 165 0.9 3.5 0.00 0.00 0.00 71 1014.2
20260901064542 82 140 1.7 6.1 0.00 0.00 0.00 71 1014.1
20260901063035 82 167 1.7 6.1 0.00 0.00 0.00 70 1013.8
20260901061534 83 109 1.7 4.3 0.00 0.00 0.00 69 1013.7
20260901060031 83 137 1.7 6.1 0.00 0.00 0.00 68 1013.6
20260901054529 83 128 1.7 5.2 0.00 0.00 0.00 67 1013.5
20260901053027 84 167 1.7 7.0 0.00 0.00 0.00 66 1013.4
20260901051524 84 144 2.6 6.1 0.00 0.00 0.00 65 1013.3
20260901050023 85 148 1.7 7.0 0.00 0.00 0.00 64 1013.2